Location: Rye
(30.7294°N, 96.4902°W)
Time: 07:31:41
(UTC+00:00)

Tiros 1 despin weight - Pass Details

Date: 06 December 2025
Orbit: 557 x 595 km, 48.2° (Epoch: 21 January)

Event Time Altitude Azimuth Distance (km) Brightness Sun altitude
Rises 00:13:26 0° 192° (SSW) 2,776 ? -10.6°
Reaches altitude 10° 00:16:17 10° 173° (S) 1,872 ? -11.1°
Maximum altitude 00:19:12 18° 130° (SE) 1,421 ? -11.7°
Enters shadow 00:21:01 14° 100° (E) 1,604 ? -12.1°
